Date_Time,Julian_Date,Latitude,Longitude,Instrument_Depth,U,V,Speed,Direction
(yyyy-mm-dd hh:mn:ss UTC),(JD),(+ deg. North),(+ deg. East),(m),(cm/s),(cm/s),(cm/s),(deg True)
1978-10-26 23:59:00 UTC,2443808.499306,27.6633,-85.5217,0157,-0.73,1.67,1.8226,336.3886
1978-10-27 00:59:00 UTC,2443808.540972,27.6633,-85.5217,0157,-0.71,1.79,1.9257,338.3643
1978-10-27 01:59:00 UTC,2443808.582639,27.6633,-85.5217,0157,-0.57,1.86,1.9454,342.9622
1978-10-27 02:59:00 UTC,2443808.624306,27.6633,-85.5217,0157,-0.38,1.97,2.0063,349.0821
1978-10-27 03:59:00 UTC,2443808.665972,27.6633,-85.5217,0157,-0.33,2.05,2.0764,350.8552
1978-10-27 04:59:00 UTC,2443808.707639,27.6633,-85.5217,0157,-0.25,1.96,1.9759,352.7311
1978-10-27 05:59:00 UTC,2443808.749306,27.6633,-85.5217,0157,-0.34,1.83,1.8613,349.4749
1978-10-27 06:59:00 UTC,2443808.790972,27.6633,-85.5217,0157,-0.60,1.69,1.7933,340.4536
1978-10-27 07:59:00 UTC,2443808.832639,27.6633,-85.5217,0157,-0.83,1.59,1.7936,332.4349
1978-10-27 08:59:00 UTC,2443808.874306,27.6633,-85.5217,0157,-0.95,1.70,1.9474,330.8025
1978-10-27 09:59:00 UTC,2443808.915972,27.6633,-85.5217,0157,-0.81,1.87,2.0379,336.5799
1978-10-27 10:59:00 UTC,2443808.957639,27.6633,-85.5217,0157,-0.92,1.74,1.9682,332.1330
1978-10-27 11:59:00 UTC,2443808.999306,27.6633,-85.5217,0157,-1.13,1.79,2.1168,327.7364
1978-10-27 12:59:00 UTC,2443809.040972,27.6633,-85.5217,0157,-1.07,2.07,2.3302,332.6652
1978-10-27 13:59:00 UTC,2443809.082639,27.6633,-85.5217,0157,-1.00,2.18,2.3984,335.3583
1978-10-27 14:59:00 UTC,2443809.124306,27.6633,-85.5217,0157,-0.97,2.16,2.3678,335.8164
1978-10-27 15:59:00 UTC,2443809.165972,27.6633,-85.5217,0157,-1.06,2.06,2.3167,332.7713
1978-10-27 16:59:00 UTC,2443809.207639,27.6633,-85.5217,0157,-1.04,2.17,2.4063,334.3933
1978-10-27 17:59:00 UTC,2443809.249306,27.6633,-85.5217,0157,-0.88,2.22,2.3881,338.3768
1978-10-27 18:59:00 UTC,2443809.290972,27.6633,-85.5217,0157,-0.68,2.18,2.2836,342.6759
1978-10-27 19:59:00 UTC,2443809.332639,27.6633,-85.5217,0157,-0.54,2.22,2.2847,346.3287
1978-10-27 20:59:00 UTC,2443809.374306,27.6633,-85.5217,0157,-0.50,2.21,2.2659,347.2518
1978-10-27 21:59:00 UTC,2443809.415972,27.6633,-85.5217,0157,-0.40,2.11,2.1476,349.2656
1978-10-27 22:59:00 UTC,2443809.457639,27.6633,-85.5217,0157,-0.40,2.01,2.0494,348.7449
1978-10-27 23:59:00 UTC,2443809.499306,27.6633,-85.5217,0157,-0.30,2.00,2.0224,351.4692
1978-10-28 00:59:00 UTC,2443809.540972,27.6633,-85.5217,0157,-0.10,1.87,1.8727,356.9390
1978-10-28 01:59:00 UTC,2443809.582639,27.6633,-85.5217,0157,-0.24,1.64,1.6575,351.6743
1978-10-28 02:59:00 UTC,2443809.624306,27.6633,-85.5217,0157,-0.62,1.51,1.6323,337.6772
1978-10-28 03:59:00 UTC,2443809.665972,27.6633,-85.5217,0157,-0.83,1.51,1.7231,331.2038
1978-10-28 04:59:00 UTC,2443809.707639,27.6633,-85.5217,0157,-0.85,1.62,1.8295,332.3144
1978-10-28 05:59:00 UTC,2443809.749306,27.6633,-85.5217,0157,-0.81,1.71,1.8921,334.6538
1978-10-28 06:59:00 UTC,2443809.790972,27.6633,-85.5217,0157,-0.71,1.85,1.9816,339.0040
1978-10-28 07:59:00 UTC,2443809.832639,27.6633,-85.5217,0157,-0.73,1.91,2.0447,339.0832
1978-10-28 08:59:00 UTC,2443809.874306,27.6633,-85.5217,0157,-0.88,1.89,2.0848,335.0329
1978-10-28 09:59:00 UTC,2443809.915972,27.6633,-85.5217,0157,-0.80,2.06,2.2099,338.7763
1978-10-28 10:59:00 UTC,2443809.957639,27.6633,-85.5217,0157,-0.69,2.16,2.2675,342.2842
1978-10-28 11:59:00 UTC,2443809.999306,27.6633,-85.5217,0157,-0.63,2.14,2.2308,343.5960
1978-10-28 12:59:00 UTC,2443810.040972,27.6633,-85.5217,0157,-0.51,2.10,2.1610,346.3496
1978-10-28 13:59:00 UTC,2443810.082639,27.6633,-85.5217,0157,-0.43,1.97,2.0164,347.6870
1978-10-28 14:59:00 UTC,2443810.124306,27.6633,-85.5217,0157,-0.40,1.81,1.8537,347.5382
1978-10-28 15:59:00 UTC,2443810.165972,27.6633,-85.5217,0157,-0.35,1.83,1.8632,349.1725
1978-10-28 16:59:00 UTC,2443810.207639,27.6633,-85.5217,0157,-0.35,1.81,1.8435,349.0558
1978-10-28 17:59:00 UTC,2443810.249306,27.6633,-85.5217,0157,-0.45,1.70,1.7586,345.1735
1978-10-28 18:59:00 UTC,2443810.290972,27.6633,-85.5217,0157,-0.56,1.58,1.6763,340.4841
1978-10-28 19:59:00 UTC,2443810.332639,27.6633,-85.5217,0157,-0.69,1.46,1.6148,334.7045
1978-10-28 20:59:00 UTC,2443810.374306,27.6633,-85.5217,0157,-0.82,1.61,1.8068,333.0095
1978-10-28 21:59:00 UTC,2443810.415972,27.6633,-85.5217,0157,-0.77,1.87,2.0223,337.6199
1978-10-28 22:59:00 UTC,2443810.457639,27.6633,-85.5217,0157,-0.81,1.97,2.1300,337.6491
1978-10-28 23:59:00 UTC,2443810.499306,27.6633,-85.5217,0157,-0.87,1.97,2.1536,336.1726
1978-10-29 00:59:00 UTC,2443810.540972,27.6633,-85.5217,0157,-0.87,1.88,2.0715,335.1669
1978-10-29 01:59:00 UTC,2443810.582639,27.6633,-85.5217,0157,-0.87,1.82,2.0173,334.4512
1978-10-29 02:59:00 UTC,2443810.624306,27.6633,-85.5217,0157,-0.95,1.79,2.0265,332.0439
1978-10-29 03:59:00 UTC,2443810.665972,27.6633,-85.5217,0157,-1.22,1.82,2.1911,326.1649
1978-10-29 04:59:00 UTC,2443810.707639,27.6633,-85.5217,0157,-1.23,1.97,2.3225,328.0208
1978-10-29 05:59:00 UTC,2443810.749306,27.6633,-85.5217,0157,-1.04,2.18,2.4154,334.4958
1978-10-29 06:59:00 UTC,2443810.790972,27.6633,-85.5217,0157,-1.01,2.27,2.4846,336.0141
1978-10-29 07:59:00 UTC,2443810.832639,27.6633,-85.5217,0157,-1.01,2.30,2.5120,336.2923
1978-10-29 08:59:00 UTC,2443810.874306,27.6633,-85.5217,0157,-1.00,2.33,2.5355,336.7717
1978-10-29 09:59:00 UTC,2443810.915972,27.6633,-85.5217,0157,-0.93,2.33,2.5087,338.2410
1978-10-29 10:59:00 UTC,2443810.957639,27.6633,-85.5217,0157,-0.87,2.28,2.4403,339.1142
1978-10-29 11:59:00 UTC,2443810.999306,27.6633,-85.5217,0157,-0.86,2.06,2.2323,337.3406
1978-10-29 12:59:00 UTC,2443811.040972,27.6633,-85.5217,0157,-0.92,1.86,2.0751,333.6819
1978-10-29 13:59:00 UTC,2443811.082639,27.6633,-85.5217,0157,-1.18,1.77,2.1273,326.3099
1978-10-29 14:59:00 UTC,2443811.124306,27.6633,-85.5217,0157,-1.37,1.71,2.1911,321.2993
1978-10-29 15:59:00 UTC,2443811.165972,27.6633,-85.5217,0157,-1.45,1.69,2.2268,319.3708
1978-10-29 16:59:00 UTC,2443811.207639,27.6633,-85.5217,0157,-1.34,1.58,2.0717,319.6987
1978-10-29 17:59:00 UTC,2443811.249306,27.6633,-85.5217,0157,-1.31,1.56,2.0371,319.9784
1978-10-29 18:59:00 UTC,2443811.290972,27.6633,-85.5217,0157,-1.47,1.75,2.2855,319.9698
1978-10-29 19:59:00 UTC,2443811.332639,27.6633,-85.5217,0157,-1.63,1.76,2.3989,317.1961
1978-10-29 20:59:00 UTC,2443811.374306,27.6633,-85.5217,0157,-1.63,1.80,2.4284,317.8374
1978-10-29 21:59:00 UTC,2443811.415972,27.6633,-85.5217,0157,-1.35,2.09,2.4881,327.1403
1978-10-29 22:59:00 UTC,2443811.457639,27.6633,-85.5217,0157,-1.35,2.03,2.4379,326.3751
1978-10-29 23:59:00 UTC,2443811.499306,27.6633,-85.5217,0157,-1.45,2.03,2.4947,324.4623
1978-10-30 00:59:00 UTC,2443811.540972,27.6633,-85.5217,0157,-1.25,2.27,2.5914,331.1602
1978-10-30 01:59:00 UTC,2443811.582639,27.6633,-85.5217,0157,-1.16,2.34,2.6117,333.6312
1978-10-30 02:59:00 UTC,2443811.624306,27.6633,-85.5217,0157,-1.12,2.27,2.5313,333.7386
1978-10-30 03:59:00 UTC,2443811.665972,27.6633,-85.5217,0157,-1.12,2.11,2.3888,332.0404
1978-10-30 04:59:00 UTC,2443811.707639,27.6633,-85.5217,0157,-1.21,1.88,2.2357,327.2340
1978-10-30 05:59:00 UTC,2443811.749306,27.6633,-85.5217,0157,-1.15,1.89,2.2124,328.6809
1978-10-30 06:59:00 UTC,2443811.790972,27.6633,-85.5217,0157,-1.09,2.00,2.2777,331.4096
1978-10-30 07:59:00 UTC,2443811.832639,27.6633,-85.5217,0157,-1.11,1.87,2.1746,329.3074
1978-10-30 08:59:00 UTC,2443811.874306,27.6633,-85.5217,0157,-1.17,1.64,2.0146,324.4954
1978-10-30 09:59:00 UTC,2443811.915972,27.6633,-85.5217,0157,-1.30,1.37,1.8886,316.5018
1978-10-30 10:59:00 UTC,2443811.957639,27.6633,-85.5217,0157,-1.29,1.37,1.8818,316.7227
1978-10-30 11:59:00 UTC,2443811.999306,27.6633,-85.5217,0157,-1.43,1.38,1.9873,313.9806
1978-10-30 12:59:00 UTC,2443812.040972,27.6633,-85.5217,0157,-1.66,1.37,2.1523,309.5329
1978-10-30 13:59:00 UTC,2443812.082639,27.6633,-85.5217,0157,-1.83,1.47,2.3473,308.7742
1978-10-30 14:59:00 UTC,2443812.124306,27.6633,-85.5217,0157,-1.94,1.50,2.4523,307.7111
1978-10-30 15:59:00 UTC,2443812.165972,27.6633,-85.5217,0157,-1.98,1.51,2.4901,307.3301
1978-10-30 16:59:00 UTC,2443812.207639,27.6633,-85.5217,0157,-2.19,1.62,2.7241,306.4913
1978-10-30 17:59:00 UTC,2443812.249306,27.6633,-85.5217,0157,-2.22,1.79,2.8518,308.8795
1978-10-30 18:59:00 UTC,2443812.290972,27.6633,-85.5217,0157,-2.16,1.89,2.8701,311.1859
1978-10-30 19:59:00 UTC,2443812.332639,27.6633,-85.5217,0157,-2.31,1.92,3.0037,309.7323
1978-10-30 20:59:00 UTC,2443812.374306,27.6633,-85.5217,0157,-2.24,1.95,2.9699,311.0407
1978-10-30 21:59:00 UTC,2443812.415972,27.6633,-85.5217,0157,-2.23,1.94,2.9558,311.0218
1978-10-30 22:59:00 UTC,2443812.457639,27.6633,-85.5217,0157,-2.33,1.97,3.0512,310.2143
1978-10-30 23:59:00 UTC,2443812.499306,27.6633,-85.5217,0157,-2.18,2.26,3.1401,316.0323
1978-10-31 00:59:00 UTC,2443812.540972,27.6633,-85.5217,0157,-2.04,2.38,3.1346,319.3987
1978-10-31 01:59:00 UTC,2443812.582639,27.6633,-85.5217,0157,-1.97,2.30,3.0283,319.4192
1978-10-31 02:59:00 UTC,2443812.624306,27.6633,-85.5217,0157,-1.94,2.20,2.9332,318.5936
1978-10-31 03:59:00 UTC,2443812.665972,27.6633,-85.5217,0157,-1.94,2.12,2.8737,317.5385
1978-10-31 04:59:00 UTC,2443812.707639,27.6633,-85.5217,0157,-1.96,2.17,2.9241,317.9108
1978-10-31 05:59:00 UTC,2443812.749306,27.6633,-85.5217,0157,-2.26,1.96,2.9915,310.9337
1978-10-31 06:59:00 UTC,2443812.790972,27.6633,-85.5217,0157,-2.36,1.97,3.0742,309.8533
1978-10-31 07:59:00 UTC,2443812.832639,27.6633,-85.5217,0157,-2.19,2.21,3.1113,315.2604
1978-10-31 08:59:00 UTC,2443812.874306,27.6633,-85.5217,0157,-2.26,2.09,3.0783,312.7620
1978-10-31 09:59:00 UTC,2443812.915972,27.6633,-85.5217,0157,-2.28,2.01,3.0395,311.3987
1978-10-31 10:59:00 UTC,2443812.957639,27.6633,-85.5217,0157,-2.33,1.85,2.9751,308.4493
1978-10-31 11:59:00 UTC,2443812.999306,27.6633,-85.5217,0157,-2.47,1.53,2.9055,301.7755
1978-10-31 12:59:00 UTC,2443813.040972,27.6633,-85.5217,0157,-2.51,1.49,2.9189,300.6945
1978-10-31 13:59:00 UTC,2443813.082639,27.6633,-85.5217,0157,-2.56,1.71,3.0786,303.7417
1978-10-31 14:59:00 UTC,2443813.124306,27.6633,-85.5217,0157,-2.61,1.75,3.1424,303.8418
1978-10-31 15:59:00 UTC,2443813.165972,27.6633,-85.5217,0157,-2.61,1.79,3.1648,304.4433
1978-10-31 16:59:00 UTC,2443813.207639,27.6633,-85.5217,0157,-2.61,1.74,3.1368,303.6901
1978-10-31 17:59:00 UTC,2443813.249306,27.6633,-85.5217,0157,-2.73,1.77,3.2536,302.9574
1978-10-31 18:59:00 UTC,2443813.290972,27.6633,-85.5217,0157,-2.59,1.77,3.1370,304.3486
1978-10-31 19:59:00 UTC,2443813.332639,27.6633,-85.5217,0157,-2.40,1.72,2.9527,305.6279
1978-10-31 20:59:00 UTC,2443813.374306,27.6633,-85.5217,0157,-2.65,1.68,3.1377,302.3732
1978-10-31 21:59:00 UTC,2443813.415972,27.6633,-85.5217,0157,-2.75,1.64,3.2019,300.8103
1978-10-31 22:59:00 UTC,2443813.457639,27.6633,-85.5217,0157,-2.53,1.71,3.0537,304.0544
1978-10-31 23:59:00 UTC,2443813.499306,27.6633,-85.5217,0157,-2.59,1.48,2.9830,299.7449
1978-11-01 00:59:00 UTC,2443813.540972,27.6633,-85.5217,0157,-2.40,1.46,2.8092,301.3135
1978-11-01 01:59:00 UTC,2443813.582639,27.6633,-85.5217,0157,-2.11,1.66,2.6847,308.1932
1978-11-01 02:59:00 UTC,2443813.624306,27.6633,-85.5217,0157,-2.12,1.71,2.7237,308.8898
1978-11-01 03:59:00 UTC,2443813.665972,27.6633,-85.5217,0157,-2.17,1.73,2.7752,308.5631
1978-11-01 04:59:00 UTC,2443813.707639,27.6633,-85.5217,0157,-2.17,1.61,2.7020,306.5730
1978-11-01 05:59:00 UTC,2443813.749306,27.6633,-85.5217,0157,-2.20,1.56,2.6970,305.3401
1978-11-01 06:59:00 UTC,2443813.790972,27.6633,-85.5217,0157,-2.26,1.56,2.7461,304.6160
1978-11-01 07:59:00 UTC,2443813.832639,27.6633,-85.5217,0157,-2.27,1.56,2.7544,304.4978
1978-11-01 08:59:00 UTC,2443813.874306,27.6633,-85.5217,0157,-2.28,1.72,2.8560,307.0304
1978-11-01 09:59:00 UTC,2443813.915972,27.6633,-85.5217,0157,-2.21,1.98,2.9672,311.8580
1978-11-01 10:59:00 UTC,2443813.957639,27.6633,-85.5217,0157,-2.00,2.13,2.9218,316.8029
1978-11-01 11:59:00 UTC,2443813.999306,27.6633,-85.5217,0157,-1.84,2.13,2.8147,319.1779
1978-11-01 12:59:00 UTC,2443814.040972,27.6633,-85.5217,0157,-1.81,2.14,2.8028,319.7756
1978-11-01 13:59:00 UTC,2443814.082639,27.6633,-85.5217,0157,-1.68,2.10,2.6893,321.3402
1978-11-01 14:59:00 UTC,2443814.124306,27.6633,-85.5217,0157,-1.71,1.86,2.5266,317.4060
1978-11-01 15:59:00 UTC,2443814.165972,27.6633,-85.5217,0157,-1.78,1.83,2.5529,315.7935
1978-11-01 16:59:00 UTC,2443814.207639,27.6633,-85.5217,0157,-1.68,1.90,2.5362,318.5165
1978-11-01 17:59:00 UTC,2443814.249306,27.6633,-85.5217,0157,-1.70,1.80,2.4759,316.6366
1978-11-01 18:59:00 UTC,2443814.290972,27.6633,-85.5217,0157,-1.74,1.72,2.4466,314.6688
1978-11-01 19:59:00 UTC,2443814.332639,27.6633,-85.5217,0157,-1.78,1.80,2.5315,315.3201
1978-11-01 20:59:00 UTC,2443814.374306,27.6633,-85.5217,0157,-1.89,1.82,2.6238,313.9191
1978-11-01 21:59:00 UTC,2443814.415972,27.6633,-85.5217,0157,-1.96,1.68,2.5815,310.6013
1978-11-01 22:59:00 UTC,2443814.457639,27.6633,-85.5217,0157,-2.01,1.91,2.7728,313.5387
1978-11-01 23:59:00 UTC,2443814.499306,27.6633,-85.5217,0157,-2.06,1.98,2.8573,313.8656
1978-11-02 00:59:00 UTC,2443814.540972,27.6633,-85.5217,0157,-2.00,1.93,2.7794,313.9796
1978-11-02 01:59:00 UTC,2443814.582639,27.6633,-85.5217,0157,-2.02,1.97,2.8216,314.2820
1978-11-02 02:59:00 UTC,2443814.624306,27.6633,-85.5217,0157,-2.11,1.91,2.8461,312.1518
1978-11-02 03:59:00 UTC,2443814.665972,27.6633,-85.5217,0157,-2.10,2.08,2.9557,314.7259
1978-11-02 04:59:00 UTC,2443814.707639,27.6633,-85.5217,0157,-2.12,2.17,3.0337,315.6678
1978-11-02 05:59:00 UTC,2443814.749306,27.6633,-85.5217,0157,-2.06,2.02,2.8851,314.4383
1978-11-02 06:59:00 UTC,2443814.790972,27.6633,-85.5217,0157,-1.97,1.87,2.7162,313.5083
1978-11-02 07:59:00 UTC,2443814.832639,27.6633,-85.5217,0157,-2.09,1.71,2.7004,309.2894
1978-11-02 08:59:00 UTC,2443814.874306,27.6633,-85.5217,0157,-2.20,1.64,2.7440,306.7029
1978-11-02 09:59:00 UTC,2443814.915972,27.6633,-85.5217,0157,-2.11,1.65,2.6785,308.0251
1978-11-02 10:59:00 UTC,2443814.957639,27.6633,-85.5217,0157,-2.11,1.54,2.6122,306.1241
1978-11-02 11:59:00 UTC,2443814.999306,27.6633,-85.5217,0157,-2.28,1.47,2.7128,302.8114
1978-11-02 12:59:00 UTC,2443815.040972,27.6633,-85.5217,0157,-2.23,1.64,2.7681,306.3317
1978-11-02 13:59:00 UTC,2443815.082639,27.6633,-85.5217,0157,-2.20,1.76,2.8174,308.6598
1978-11-02 14:59:00 UTC,2443815.124306,27.6633,-85.5217,0157,-2.09,1.95,2.8584,313.0153
1978-11-02 15:59:00 UTC,2443815.165972,27.6633,-85.5217,0157,-1.97,1.92,2.7509,314.2636
1978-11-02 16:59:00 UTC,2443815.207639,27.6633,-85.5217,0157,-2.31,1.79,2.9224,307.7718
1978-11-02 17:59:00 UTC,2443815.249306,27.6633,-85.5217,0157,-2.59,1.80,3.1541,304.7986
1978-11-02 18:59:00 UTC,2443815.290972,27.6633,-85.5217,0157,-2.43,1.77,3.0063,306.0694
1978-11-02 19:59:00 UTC,2443815.332639,27.6633,-85.5217,0157,-2.49,1.65,2.9871,303.5305
1978-11-02 20:59:00 UTC,2443815.374306,27.6633,-85.5217,0157,-2.71,1.68,3.1885,301.7959
1978-11-02 21:59:00 UTC,2443815.415972,27.6633,-85.5217,0157,-2.65,1.73,3.1647,303.1377
1978-11-02 22:59:00 UTC,2443815.457639,27.6633,-85.5217,0157,-2.77,1.62,3.2089,300.3207
1978-11-02 23:59:00 UTC,2443815.499306,27.6633,-85.5217,0157,-3.00,1.64,3.4190,298.6640
1978-11-03 00:59:00 UTC,2443815.540972,27.6633,-85.5217,0157,-2.99,1.69,3.4346,299.4759
1978-11-03 01:59:00 UTC,2443815.582639,27.6633,-85.5217,0157,-2.80,1.95,3.4121,304.8545
1978-11-03 02:59:00 UTC,2443815.624306,27.6633,-85.5217,0157,-2.78,2.13,3.5022,307.4589
1978-11-03 03:59:00 UTC,2443815.665972,27.6633,-85.5217,0157,-2.86,1.94,3.4559,304.1499
1978-11-03 04:59:00 UTC,2443815.707639,27.6633,-85.5217,0157,-2.77,2.02,3.4283,306.1011
1978-11-03 05:59:00 UTC,2443815.749306,27.6633,-85.5217,0157,-2.82,2.04,3.4805,305.8821
1978-11-03 06:59:00 UTC,2443815.790972,27.6633,-85.5217,0157,-2.87,1.99,3.4924,304.7367
1978-11-03 07:59:00 UTC,2443815.832639,27.6633,-85.5217,0157,-2.91,1.93,3.4918,303.5535
1978-11-03 08:59:00 UTC,2443815.874306,27.6633,-85.5217,0157,-2.94,1.87,3.4843,302.4586
1978-11-03 09:59:00 UTC,2443815.915972,27.6633,-85.5217,0157,-2.84,1.94,3.4394,304.3369
1978-11-03 10:59:00 UTC,2443815.957639,27.6633,-85.5217,0157,-2.72,1.76,3.2398,302.9052
1978-11-03 11:59:00 UTC,2443815.999306,27.6633,-85.5217,0157,-2.67,1.34,2.9874,296.6508
1978-11-03 12:59:00 UTC,2443816.040972,27.6633,-85.5217,0157,-2.52,1.21,2.7954,295.6484
1978-11-03 13:59:00 UTC,2443816.082639,27.6633,-85.5217,0157,-2.40,1.07,2.6277,294.0289
1978-11-03 14:59:00 UTC,2443816.124306,27.6633,-85.5217,0157,-2.58,0.75,2.6868,286.2090
1978-11-03 15:59:00 UTC,2443816.165972,27.6633,-85.5217,0157,-2.74,0.59,2.8028,282.1519
1978-11-03 16:59:00 UTC,2443816.207639,27.6633,-85.5217,0157,-2.73,0.91,2.8777,288.4349
1978-11-03 17:59:00 UTC,2443816.249306,27.6633,-85.5217,0157,-2.92,1.11,3.1239,290.8137
1978-11-03 18:59:00 UTC,2443816.290972,27.6633,-85.5217,0157,-3.17,0.97,3.3151,287.0138
1978-11-03 19:59:00 UTC,2443816.332639,27.6633,-85.5217,0157,-3.24,0.84,3.3471,284.5345
1978-11-03 20:59:00 UTC,2443816.374306,27.6633,-85.5217,0157,-3.35,0.81,3.4465,283.5927
1978-11-03 21:59:00 UTC,2443816.415972,27.6633,-85.5217,0157,-3.43,1.00,3.5728,286.2538
1978-11-03 22:59:00 UTC,2443816.457639,27.6633,-85.5217,0157,-3.52,1.04,3.6704,286.4600
1978-11-03 23:59:00 UTC,2443816.499306,27.6633,-85.5217,0157,-3.44,1.11,3.6147,287.8836
1978-11-04 00:59:00 UTC,2443816.540972,27.6633,-85.5217,0157,-3.30,1.18,3.5046,289.6758
1978-11-04 01:59:00 UTC,2443816.582639,27.6633,-85.5217,0157,-3.30,1.10,3.4785,288.4349
1978-11-04 02:59:00 UTC,2443816.624306,27.6633,-85.5217,0157,-3.25,1.09,3.4279,288.5406
1978-11-04 03:59:00 UTC,2443816.665972,27.6633,-85.5217,0157,-3.16,1.12,3.3526,289.5159
1978-11-04 04:59:00 UTC,2443816.707639,27.6633,-85.5217,0157,-3.06,1.09,3.2483,289.6064
1978-11-04 05:59:00 UTC,2443816.749306,27.6633,-85.5217,0157,-3.04,1.01,3.2034,288.3784
1978-11-04 06:59:00 UTC,2443816.790972,27.6633,-85.5217,0157,-3.00,0.89,3.1292,286.5239
1978-11-04 07:59:00 UTC,2443816.832639,27.6633,-85.5217,0157,-2.99,0.69,3.0686,282.9946
1978-11-04 08:59:00 UTC,2443816.874306,27.6633,-85.5217,0157,-3.11,0.61,3.1693,281.0972
1978-11-04 09:59:00 UTC,2443816.915972,27.6633,-85.5217,0157,-3.20,0.42,3.2274,277.4774
1978-11-04 10:59:00 UTC,2443816.957639,27.6633,-85.5217,0157,-3.25,0.36,3.2699,276.3209
1978-11-04 11:59:00 UTC,2443816.999306,27.6633,-85.5217,0157,-3.34,0.40,3.3639,276.8293
1978-11-04 12:59:00 UTC,2443817.040972,27.6633,-85.5217,0157,-3.25,0.25,3.2596,274.3987
1978-11-04 13:59:00 UTC,2443817.082639,27.6633,-85.5217,0157,-3.02,0.45,3.0533,278.4751
1978-11-04 14:59:00 UTC,2443817.124306,27.6633,-85.5217,0157,-2.98,0.51,3.0233,279.7116
1978-11-04 15:59:00 UTC,2443817.165972,27.6633,-85.5217,0157,-2.91,0.36,2.9322,277.0523
1978-11-04 16:59:00 UTC,2443817.207639,27.6633,-85.5217,0157,-2.86,0.40,2.8878,277.9618
1978-11-04 17:59:00 UTC,2443817.249306,27.6633,-85.5217,0157,-2.89,0.20,2.8969,273.9588
1978-11-04 18:59:00 UTC,2443817.290972,27.6633,-85.5217,0157,-2.95,0.08,2.9511,271.5534
1978-11-04 19:59:00 UTC,2443817.332639,27.6633,-85.5217,0157,-2.95,0.25,2.9606,274.8440
1978-11-04 20:59:00 UTC,2443817.374306,27.6633,-85.5217,0157,-2.98,0.24,2.9896,274.6045
1978-11-04 21:59:00 UTC,2443817.415972,27.6633,-85.5217,0157,-3.05,0.09,3.0513,271.6902
1978-11-04 22:59:00 UTC,2443817.457639,27.6633,-85.5217,0157,-2.97,0.05,2.9704,270.9645
1978-11-04 23:59:00 UTC,2443817.499306,27.6633,-85.5217,0157,-2.96,-0.03,2.9602,269.4193
1978-11-05 00:59:00 UTC,2443817.540972,27.6633,-85.5217,0157,-2.97,-0.08,2.9711,268.4571
1978-11-05 01:59:00 UTC,2443817.582639,27.6633,-85.5217,0157,-2.89,-0.13,2.8929,267.4244
1978-11-05 02:59:00 UTC,2443817.624306,27.6633,-85.5217,0157,-2.82,-0.26,2.8320,264.7323
1978-11-05 03:59:00 UTC,2443817.665972,27.6633,-85.5217,0157,-2.82,-0.34,2.8404,263.1252
1978-11-05 04:59:00 UTC,2443817.707639,27.6633,-85.5217,0157,-2.83,-0.32,2.8480,263.5487
1978-11-05 05:59:00 UTC,2443817.749306,27.6633,-85.5217,0157,-2.83,-0.25,2.8410,264.9517
1978-11-05 06:59:00 UTC,2443817.790972,27.6633,-85.5217,0157,-2.79,-0.35,2.8119,262.8497
1978-11-05 07:59:00 UTC,2443817.832639,27.6633,-85.5217,0157,-2.78,-0.42,2.8115,261.4088
1978-11-05 08:59:00 UTC,2443817.874306,27.6633,-85.5217,0157,-2.85,-0.39,2.8766,262.2079
1978-11-05 09:59:00 UTC,2443817.915972,27.6633,-85.5217,0157,-2.88,-0.43,2.9119,261.5081
1978-11-05 10:59:00 UTC,2443817.957639,27.6633,-85.5217,0157,-2.94,-0.54,2.9892,259.5923
1978-11-05 11:59:00 UTC,2443817.999306,27.6633,-85.5217,0157,-2.98,-0.73,3.0681,256.2355
1978-11-05 12:59:00 UTC,2443818.040972,27.6633,-85.5217,0157,-2.88,-0.76,2.9786,255.2173
1978-11-05 13:59:00 UTC,2443818.082639,27.6633,-85.5217,0157,-2.91,-0.63,2.9774,257.7843
1978-11-05 14:59:00 UTC,2443818.124306,27.6633,-85.5217,0157,-3.02,-0.39,3.0451,262.6416
1978-11-05 15:59:00 UTC,2443818.165972,27.6633,-85.5217,0157,-2.81,-0.27,2.8229,264.5116
1978-11-05 16:59:00 UTC,2443818.207639,27.6633,-85.5217,0157,-2.69,-0.25,2.7016,264.6904
1978-11-05 17:59:00 UTC,2443818.249306,27.6633,-85.5217,0157,-2.77,-0.20,2.7772,265.8703
1978-11-05 18:59:00 UTC,2443818.290972,27.6633,-85.5217,0157,-2.68,-0.19,2.6867,265.9448
1978-11-05 19:59:00 UTC,2443818.332639,27.6633,-85.5217,0157,-2.55,0.04,2.5503,270.8987
1978-11-05 20:59:00 UTC,2443818.374306,27.6633,-85.5217,0157,-2.57,0.23,2.5803,275.1140
1978-11-05 21:59:00 UTC,2443818.415972,27.6633,-85.5217,0157,-2.66,0.12,2.6627,272.5830
1978-11-05 22:59:00 UTC,2443818.457639,27.6633,-85.5217,0157,-2.74,-0.07,2.7409,268.5366
1978-11-05 23:59:00 UTC,2443818.499306,27.6633,-85.5217,0157,-2.68,-0.13,2.6832,267.2229
1978-11-06 00:59:00 UTC,2443818.540972,27.6633,-85.5217,0157,-2.64,-0.01,2.6400,269.7830
1978-11-06 01:59:00 UTC,2443818.582639,27.6633,-85.5217,0157,-2.65,-0.05,2.6505,268.9191
1978-11-06 02:59:00 UTC,2443818.624306,27.6633,-85.5217,0157,-2.59,-0.22,2.5993,265.1448
1978-11-06 03:59:00 UTC,2443818.665972,27.6633,-85.5217,0157,-2.44,-0.30,2.4584,262.9906
1978-11-06 04:59:00 UTC,2443818.707639,27.6633,-85.5217,0157,-2.34,-0.24,2.3523,264.1440
1978-11-06 05:59:00 UTC,2443818.749306,27.6633,-85.5217,0157,-2.32,-0.26,2.3345,263.6056
1978-11-06 06:59:00 UTC,2443818.790972,27.6633,-85.5217,0157,-2.34,-0.28,2.3567,263.1765
1978-11-06 07:59:00 UTC,2443818.832639,27.6633,-85.5217,0157,-2.34,-0.28,2.3567,263.1765
1978-11-06 08:59:00 UTC,2443818.874306,27.6633,-85.5217,0157,-2.31,-0.37,2.3394,260.9001
1978-11-06 09:59:00 UTC,2443818.915972,27.6633,-85.5217,0157,-2.45,-0.55,2.5110,257.3474
1978-11-06 10:59:00 UTC,2443818.957639,27.6633,-85.5217,0157,-2.43,-0.36,2.4565,261.5730
1978-11-06 11:59:00 UTC,2443818.999306,27.6633,-85.5217,0157,-2.27,-0.40,2.3050,260.0064
1978-11-06 12:59:00 UTC,2443819.040972,27.6633,-85.5217,0157,-2.30,-0.67,2.3956,253.7589
1978-11-06 13:59:00 UTC,2443819.082639,27.6633,-85.5217,0157,-2.36,-0.56,2.4255,256.6513
1978-11-06 14:59:00 UTC,2443819.124306,27.6633,-85.5217,0157,-2.27,-0.42,2.3085,259.5176
1978-11-06 15:59:00 UTC,2443819.165972,27.6633,-85.5217,0157,-2.18,-0.55,2.2483,255.8401
1978-11-06 16:59:00 UTC,2443819.207639,27.6633,-85.5217,0157,-2.20,-0.73,2.3180,251.6432
1978-11-06 17:59:00 UTC,2443819.249306,27.6633,-85.5217,0157,-2.13,-0.68,2.2359,252.2944
1978-11-06 18:59:00 UTC,2443819.290972,27.6633,-85.5217,0157,-2.02,-0.65,2.1220,252.1628
1978-11-06 19:59:00 UTC,2443819.332639,27.6633,-85.5217,0157,-1.97,-0.76,2.1115,248.9041
1978-11-06 20:59:00 UTC,2443819.374306,27.6633,-85.5217,0157,-2.09,-0.73,2.2138,250.7466
1978-11-06 21:59:00 UTC,2443819.415972,27.6633,-85.5217,0157,-2.25,-0.62,2.3339,254.5942
1978-11-06 22:59:00 UTC,2443819.457639,27.6633,-85.5217,0157,-2.31,-0.73,2.4226,252.4626
1978-11-06 23:59:00 UTC,2443819.499306,27.6633,-85.5217,0157,-2.31,-0.84,2.4580,250.0169
1978-11-07 00:59:00 UTC,2443819.540972,27.6633,-85.5217,0157,-2.28,-0.84,2.4298,249.7751
1978-11-07 01:59:00 UTC,2443819.582639,27.6633,-85.5217,0157,-2.34,-0.89,2.5035,249.1761
1978-11-07 02:59:00 UTC,2443819.624306,27.6633,-85.5217,0157,-2.49,-0.74,2.5976,253.4487
1978-11-07 03:59:00 UTC,2443819.665972,27.6633,-85.5217,0157,-2.58,-0.57,2.6422,257.5417
1978-11-07 04:59:00 UTC,2443819.707639,27.6633,-85.5217,0157,-2.49,-0.69,2.5838,254.5115